Daleville, AL

2:26 AM CDT on July 26, 2016 (GMT -0500)
Cairns Army Air Field

Weather History for KOZR - December, 2014

Change the Weather History Date:

Thursday, December 4, 2014

  Actual Average Record
Temperature  
Mean Temperature 67 °F -  
Max Temperature 78 °F 62 °F 82 °F (1998)
Min Temperature 56 °F 41 °F 28 °F (2000)
Cooling Degree Days 2    
Growing Degree Days 17 (Base 50)    
Moisture  
Dew Point 55 °F    
Average Humidity 72    
Maximum Humidity 95    
Minimum Humidity 39    
Precipitation  
Precipitation 0.00 in - - ()
Sea Level Pressure  
Sea Level Pressure 30.23 in    
Wind  
Wind Speed 5 mph (East)    
Max Wind Speed 8 mph    
Max Gust Speed -    
Visibility 10 miles    
Events      
Averages and records for this station are not official NWS values.
T = Trace of Precipitation, MM = Missing Value Source: NWS Daily Summary

Daily Weather History Graph

Daily Weather History Graph

Search for Another Location

Airport or City:

Trip Planner

Search our weather history database for the weather conditions in past years. The results will help you decide how hot, cold, wet, or windy it might be!

Date:

Astronomy

Dec. 04, 2014 Rise Set
Actual Time 6:26 AM CST 4:39 PM CST
Civil Twilight 5:59 AM CST 5:06 PM CST
Nautical Twilight 5:29 AM CST 5:36 PM CST
Astronomical Twilight 5:00 AM CST 6:05 PM CST
Moon 3:34 PM CST (12/4) 4:24 AM CST (12/4)
Length of Visible Light 11h 06m
Length of Day
10h 13m
Waxing Gibbous, 97% of the Moon is Illuminated
Dec 4
Waxing Gibbous
Dec 6
Full
Dec 14
Last Quarter
Dec 21
New
Dec 28
First Quarter

Hourly Weather History & Observations

Time (CST) Temp. Dew Point Humidity Pressure Visibility Wind Dir Wind Speed Gust Speed Precip Events Conditions
12:58 AM 58.3 °F 56.1 °F 93% 30.22 in 10.0 mi NE 8.1 mph - N/A   Clear
1:58 AM 58.3 °F 55.9 °F 92% 30.20 in 10.0 mi ENE 2.3 mph - N/A   Clear
2:58 AM 57.9 °F 55.6 °F 92% 30.22 in 10.0 mi NE 4.6 mph - N/A   Clear
3:58 AM 57.7 °F 55.0 °F 91% 30.24 in 10.0 mi NE 4.6 mph - N/A   Clear
4:58 AM 57.2 °F 55.4 °F 94% 30.25 in 10.0 mi ENE 3.5 mph - N/A   Clear
5:58 AM 56.3 °F 54.7 °F 94% 30.25 in 10.0 mi East 4.6 mph - N/A   Clear
6:58 AM 56.1 °F 54.7 °F 95% 30.26 in 9.0 mi ENE 3.5 mph - N/A   Clear
7:58 AM 59.7 °F 58.1 °F 94% 30.28 in 10.0 mi NE 4.6 mph - N/A   Clear
8:58 AM 65.5 °F 58.3 °F 77% 30.30 in 10.0 mi Variable 2.3 mph - N/A   Clear
10:58 AM 74.7 °F 58.8 °F 58% 30.27 in 10.0 mi South 3.5 mph - N/A   Clear
11:58 AM 76.6 °F 56.8 °F 50% 30.22 in 10.0 mi Variable 5.8 mph - N/A   Partly Cloudy
12:58 PM 78.1 °F 55.0 °F 45% 30.20 in 10.0 mi East 8.1 mph - N/A   Clear
1:58 PM 78.3 °F 52.0 °F 40% 30.19 in 10.0 mi East 2.3 mph - N/A   Clear
2:58 PM 78.3 °F 51.6 °F 39% 30.19 in 10.0 mi SE 4.6 mph - N/A   Clear
3:58 PM 76.6 °F 52.0 °F 42% 30.20 in 10.0 mi ESE 3.5 mph - N/A   Clear
4:58 PM 71.8 °F 53.2 °F 52% 30.21 in 10.0 mi ESE 3.5 mph - N/A   Clear
5:58 PM 68.2 °F 53.4 °F 59% 30.22 in 10.0 mi ESE 4.6 mph - N/A   Clear
6:58 PM 65.5 °F 54.7 °F 68% 30.22 in 10.0 mi East 3.5 mph - N/A   Clear
7:58 PM 65.1 °F 54.0 °F 67% 30.23 in 10.0 mi East 3.5 mph - N/A   Clear
8:58 PM 62.6 °F 53.4 °F 72% 30.24 in 10.0 mi Variable 2.3 mph - N/A   Clear
9:58 PM 60.6 °F 53.6 °F 78% 30.25 in 10.0 mi South 2.3 mph - N/A   Clear
10:58 PM 59.5 °F 53.2 °F 80% 30.25 in 10.0 mi Calm Calm - N/A   Clear
11:58 PM 56.7 °F 52.5 °F 86% 30.24 in 10.0 mi NE 2.3 mph - N/A   Clear